GW5791 Weather Reports


time (UTC)temp
C
wind
direction
speed
KPH
gust
KPH
rain 1hr
cm
rain 24hr
cm
rain mn
cm
humidity
%
barometer
mb
20260505224605 14 127 3.2 9.7 0.00 0.00 0.00 63 827.0
20260505224105 14 8 4.8 11.3 0.00 0.00 0.00 60 827.0
20260505223605 13 33 1.6 8.0 0.00 0.00 0.00 61 827.0
20260505223105 13 156 3.2 8.0 0.00 0.00 0.00 62 827.1
20260505222606 13 25 1.6 9.7 0.00 0.00 0.00 67 827.2
20260505222105 12 16 3.2 8.0 0.00 0.00 0.00 68 827.5
20260505221606 12 36 1.6 9.7 0.00 0.00 0.00 74 827.5
20260505221105 12 332 6.4 14.5 0.00 0.00 0.00 77 827.7
20260505220106 12 238 6.4 16.1 0.00 0.00 0.00 76 828.0
20260505215105 13 202 11.3 22.5 0.00 0.00 0.00 68 828.0
20260505213605 15 246 9.7 12.9 0.00 0.00 0.00 51 827.6
20260505213105 15 265 8.0 14.5 0.00 0.00 0.00 50 827.6
20260505212605 15 272 6.4 12.9 0.00 0.00 0.00 49 827.5
20260505212105 15 9 8.0 14.5 0.00 0.00 0.00 50 827.5
20260505211105 15 202 8.0 16.1 0.00 0.00 0.00 51 827.6
20260505210605 15 323 4.8 11.3 0.00 0.00 0.00 51 827.6
20260505210105 16 356 3.2 11.3 0.00 0.00 0.00 51 827.6
20260505205605 16 309 4.8 14.5 0.00 0.00 0.00 51 827.6
20260505205105 16 297 4.8 11.3 0.00 0.00 0.00 51 827.6
20260505204106 16 26 3.2 8.0 0.00 0.00 0.00 52 827.7
20260505203605 16 268 8.0 14.5 0.00 0.00 0.00 52 827.8
20260505203105 15 266 4.8 14.5 0.00 0.00 0.00 53 827.9
20260505202605 15 118 4.8 11.3 0.00 0.00 0.00 52 827.9
20260505202105 15 185 1.6 14.5 0.00 0.00 0.00 54 827.8
20260505201605 15 333 8.0 14.5 0.00 0.00 0.00 53 827.8
20260505201105 15 295 4.8 14.5 0.00 0.00 0.00 53 827.8
20260505200604 15 19 6.4 12.9 0.00 0.00 0.00 55 827.9
20260505200105 14 315 4.8 12.9 0.00 0.00 0.00 56 828.0
20260505195605 13 301 6.4 11.3 0.00 0.00 0.00 61 828.0
20260505195105 13 316 6.4 12.9 0.00 0.00 0.00 59 828.2
20260505194605 13 344 4.8 16.1 0.00 0.00 0.00 59 828.3
20260505194105 13 264 6.4 16.1 0.00 0.00 0.00 63 828.3
20260505193605 13 276 9.7 20.9 0.00 0.00 0.00 63 828.3
20260505193105 13 244 6.4 14.5 0.00 0.00 0.00 60 828.3
20260505192605 13 323 3.2 16.1 0.00 0.00 0.00 64 828.4
20260505192105 13 260 8.0 20.9 0.00 0.00 0.00 66 828.4
20260505191605 13 299 8.0 14.5 0.00 0.00 0.00 67 828.5
20260505191105 13 294 8.0 16.1 0.00 0.00 0.00 70 828.5
20260505190605 12 298 8.0 19.3 0.00 0.00 0.00 71 828.5
20260505185104 12 296 8.0 14.5 0.00 0.00 0.00 73 828.6
20260505184605 12 295 4.8 14.5 0.00 0.00 0.00 71 828.7
20260505183606 13 276 8.0 20.9 0.00 0.00 0.00 61 828.5
20260505182105 14 246 8.0 12.9 0.00 0.00 0.00 53 828.4
20260505181605 15 277 9.7 16.1 0.00 0.00 0.00 52 828.4
20260505181104 15 272 9.7 19.3 0.00 0.00 0.00 48 828.3
20260505175605 15 189 4.8 11.3 0.00 0.00 0.00 46 828.2
20260505175104 15 218 4.8 19.3 0.00 0.00 0.00 47 828.2
20260505174104 15 132 4.8 9.7 0.00 0.00 0.00 47 828.2
20260505173605 14 171 4.8 11.3 0.00 0.00 0.00 47 828.2
20260505172605 14 48 4.8 11.3 0.00 0.00 0.00 47 828.2
20260505171605 14 239 4.8 12.9 0.00 0.00 0.00 49 828.3
20260505171104 14 324 1.6 9.7 0.00 0.00 0.00 49 828.3
20260505170604 13 38 3.2 11.3 0.00 0.00 0.00 50 828.4
20260505165605 13 283 3.2 14.5 0.00 0.00 0.00 51 828.6
20260505165105 13 333 9.7 16.1 0.00 0.00 0.00 52 828.6
20260505164605 13 6 8.0 16.1 0.00 0.00 0.00 52 828.4
20260505164105 12 9 4.8 14.5 0.00 0.00 0.00 54 828.4
20260505163605 12 6 8.0 14.5 0.00 0.00 0.00 54 828.6
20260505162605 12 10 8.0 14.5 0.00 0.00 0.00 56 828.5
20260505162105 12 9 4.8 11.3 0.00 0.00 0.00 57 828.6
20260505161605 12 345 8.0 14.5 0.00 0.00 0.00 59 828.8
20260505160604 12 12 8.0 14.5 0.00 0.00 0.00 60 828.9
20260505153105 12 330 9.7 16.1 0.00 0.00 0.00 61 829.0
20260505152604 12 336 9.7 16.1 0.00 0.00 0.00 61 829.1
20260505152104 12 346 9.7 12.9 0.00 0.00 0.00 62 829.1
20260505150605 12 18 4.8 11.3 0.00 0.00 0.00 64 829.1
20260505150104 11 4 8.0 12.9 0.00 0.00 0.00 63 829.2
20260505140105 13 8 12.9 22.5 0.00 0.00 0.00 51 829.3
20260505130104 14 320 3.2 4.8 0.00 0.00 0.00 45 828.5
20260505124605 14 300 3.2 4.8 0.00 0.00 0.00 44 828.2
20260505124104 14 299 3.2 8.0 0.00 0.00 0.00 43 828.4
20260505123105 14 317 3.2 4.8 0.00 0.00 0.00 43 828.4
20260505122605 14 310 1.6 4.8 0.00 0.00 0.00 43 828.4
20260505121605 14 293 1.6 12.9 0.00 0.00 0.00 42 828.5
20260505121104 14 279 6.4 12.9 0.00 0.00 0.00 42 828.5
20260505115605 14 22 3.2 3.2 0.00 0.00 0.00 40 828.3
20260505115105 14 44 1.6 3.2 0.00 0.00 0.00 39 828.3
20260505114605 14 64 1.6 1.6 0.00 0.00 0.00 40 828.3
20260505114104 14 121 0.0 3.2 0.00 0.00 0.00 40 828.1
20260505113605 14 74 3.2 3.2 0.00 0.00 0.00 39 828.1
20260505113105 14 86 0.0 3.2 0.00 0.00 0.00 38 828.2
20260505112104 14 45 1.6 3.2 0.00 0.00 0.00 37 828.1
20260505111604 15 31 1.6 3.2 0.00 0.00 0.00 37 828.1
20260505111105 15 6 1.6 4.8 0.00 0.00 0.00 37 828.2
20260505110604 15 289 1.6 4.8 0.00 0.00 0.00 36 828.3
20260505102104 15 265 6.4 12.9 0.00 0.00 0.00 34 828.4
20260505101604 15 263 8.0 12.9 0.00 0.00 0.00 34 828.3
20260505101104 15 265 4.8 4.8 0.00 0.00 0.00 35 828.1
20260505100604 15 254 3.2 4.8 0.00 0.00 0.00 34 828.1
20260505100104 15 263 3.2 4.8 0.00 0.00 0.00 35 828.1
20260505095604 15 257 0.0 1.6 0.00 0.00 0.00 35 828.1
20260505095105 15 350 1.6 3.2 0.00 0.00 0.00 34 828.2
20260505094605 15 356 1.6 4.8 0.00 0.00 0.00 34 828.2
20260505094104 15 5 3.2 4.8 0.00 0.00 0.00 34 828.1
20260505093604 15 23 3.2 4.8 0.00 0.00 0.00 34 828.1
20260505093104 15 28 3.2 4.8 0.00 0.00 0.00 33 828.0
20260505092605 15 354 1.6 4.8 0.00 0.00 0.00 33 828.0
20260505092105 15 296 3.2 8.0 0.00 0.00 0.00 33 828.2
20260505091604 15 268 4.8 9.7 0.00 0.00 0.00 33 828.1
20260505091104 15 243 4.8 9.7 0.00 0.00 0.00 33 828.2
20260505090604 15 259 4.8 8.0 0.00 0.00 0.00 33 828.4
20260505090104 16 272 3.2 4.8 0.00 0.00 0.00 33 828.5
20260505085604 16 274 3.2 4.8 0.00 0.00 0.00 32 828.5
20260505085104 16 268 1.6 3.2 0.00 0.00 0.00 33 828.5
20260505084604 16 294 1.6 4.8 0.00 0.00 0.00 32 828.5
20260505084104 16 284 3.2 4.8 0.00 0.00 0.00 32 828.6
20260505083104 16 299 6.4 11.3 0.00 0.00 0.00 32 828.8
20260505082604 16 313 3.2 8.0 0.00 0.00 0.00 32 828.8
20260505082104 16 277 4.8 11.3 0.00 0.00 0.00 31 828.7
20260505081604 16 298 4.8 9.7 0.00 0.00 0.00 31 828.7
20260505081104 16 283 6.4 12.9 0.00 0.00 0.00 31 828.6
20260505080604 16 270 8.0 16.1 0.00 0.00 0.00 31 828.6
20260505080104 16 271 4.8 11.3 0.00 0.00 0.00 31 828.6
20260505075604 16 272 8.0 14.5 0.00 0.00 0.00 31 828.8
20260505075104 17 317 9.7 19.3 0.00 0.00 0.00 31 828.8
20260505074605 17 268 11.3 27.4 0.00 0.00 0.00 31 828.6
20260505074104 17 255 14.5 29.0 0.00 0.00 0.00 30 828.6
20260505073604 17 243 17.7 32.2 0.00 0.00 0.00 30 828.5
20260505073104 17 249 14.5 33.8 0.00 0.00 0.00 30 828.6
20260505072604 17 245 16.1 32.2 0.00 0.00 0.00 30 828.6
20260505072104 17 258 14.5 32.2 0.00 0.00 0.00 30 828.5
20260505071604 17 266 14.5 32.2 0.00 0.00 0.00 30 828.5
20260505071105 17 256 14.5 35.4 0.00 0.00 0.00 29 828.5
20260505065604 17 255 9.7 33.8 0.00 0.00 0.00 28 828.2
20260505065104 17 254 14.5 27.4 0.00 0.00 0.00 28 828.2
20260505064604 17 271 9.7 22.5 0.00 0.00 0.00 28 828.2
20260505064104 18 274 8.0 20.9 0.00 0.00 0.00 27 828.2
20260505063604 18 252 8.0 19.3 0.00 0.00 0.00 27 828.2
20260505063104 18 249 9.7 19.3 0.00 0.00 0.00 27 828.0
20260505062604 18 250 11.3 20.9 0.00 0.00 0.00 27 828.1
20260505062104 18 262 8.0 19.3 0.00 0.00 0.00 26 828.2
20260505061105 18 247 9.7 16.1 0.00 0.00 0.00 26 828.3
20260505060104 18 244 9.7 19.3 0.00 0.00 0.00 25 828.3
20260505055104 18 260 11.3 14.5 0.00 0.00 0.00 25 828.3
20260505054104 18 263 8.0 16.1 0.00 0.00 0.00 24 828.2
20260505053604 18 262 9.7 14.5 0.00 0.00 0.00 24 828.1
20260505053104 19 270 8.0 12.9 0.00 0.00 0.00 24 828.0
20260505052603 19 271 8.0 14.5 0.00 0.00 0.00 24 828.0
20260505052104 19 275 8.0 20.9 0.00 0.00 0.00 24 828.0
20260505051604 19 279 8.0 14.5 0.00 0.00 0.00 24 828.0
20260505051104 19 269 3.2 12.9 0.00 0.00 0.00 24 828.0
20260505050604 19 271 4.8 12.9 0.00 0.00 0.00 24 828.0
20260505050104 19 295 3.2 12.9 0.00 0.00 0.00 23 828.0
20260505041104 20 288 1.6 8.0 0.00 0.00 0.00 24 828.0
20260505040604 20 290 1.6 8.0 0.00 0.00 0.00 23 827.9
20260505040104 20 302 3.2 14.5 0.00 0.00 0.00 23 827.9
20260505035104 20 5 1.6 4.8 0.00 0.00 0.00 23 827.9
20260505034604 20 312 4.8 11.3 0.00 0.00 0.00 23 828.0
20260505034104 20 316 3.2 19.3 0.00 0.00 0.00 23 827.8
20260505033104 20 299 4.8 19.3 0.00 0.00 0.00 22 827.6
20260505032604 20 288 6.4 20.9 0.00 0.00 0.00 22 827.6
20260505032104 20 268 8.0 20.9 0.00 0.00 0.00 22 827.5
20260505031604 20 273 8.0 22.5 0.00 0.00 0.00 22 827.5
20260505031104 20 264 8.0 20.9 0.00 0.00 0.00 22 827.5
20260505030604 21 275 8.0 22.5 0.00 0.00 0.00 22 827.4
20260505025603 21 264 8.0 24.1 0.00 0.00 0.00 22 827.3
20260505025104 21 266 9.7 20.9 0.00 0.00 0.00 21 827.2
20260505024604 21 268 11.3 20.9 0.00 0.00 0.00 21 827.2
20260505023604 21 277 9.7 20.9 0.00 0.00 0.00 21 827.1
20260505023104 21 273 8.0 19.3 0.00 0.00 0.00 20 827.0
20260505022604 21 267 8.0 16.1 0.00 0.00 0.00 20 827.0
20260505022104 21 273 8.0 16.1 0.00 0.00 0.00 20 827.0
20260505021604 21 274 4.8 16.1 0.00 0.00 0.00 20 827.0
20260505020604 21 271 4.8 11.3 0.00 0.00 0.00 20 826.9
20260505020104 21 268 4.8 11.3 0.00 0.00 0.00 20 826.8
20260505015603 21 283 6.4 14.5 0.00 0.00 0.00 20 826.8
20260505014604 22 270 4.8 12.9 0.00 0.00 0.00 20 826.7
20260505014104 22 286 4.8 12.9 0.00 0.00 0.00 21 826.6
20260505013604 22 271 3.2 9.7 0.00 0.00 0.00 20 826.5
20260505013104 22 269 3.2 4.8 0.00 0.00 0.00 20 826.5
20260505012604 22 274 3.2 9.7 0.00 0.00 0.00 20 826.4
20260505012104 22 292 3.2 8.0 0.00 0.00 0.00 20 826.4
20260505011104 22 282 4.8 11.3 0.00 0.00 0.00 19 826.4
20260505005603 22 295 3.2 9.7 0.00 0.00 0.00 19 826.3
20260505005104 22 283 1.6 11.3 0.00 0.00 0.00 18 826.3
20260505004603 22 307 4.8 9.7 0.00 0.00 0.00 18 826.3
20260505004104 22 281 4.8 11.3 0.00 0.00 0.00 18 826.4
20260505003603 22 291 3.2 12.9 0.00 0.00 0.00 18 826.4
20260505003104 22 268 4.8 12.9 0.00 0.00 0.00 18 826.4
20260505002604 22 302 4.8 11.3 0.00 0.00 0.00 17 826.5
20260505002103 22 279 6.4 16.1 0.00 0.00 0.00 17 826.5
20260505001604 22 263 4.8 12.9 0.00 0.00 0.00 17 826.6
20260504235606 22 284 8.0 14.5 0.00 0.00 0.00 16 826.6
20260504235105 22 279 6.4 14.5 0.00 0.00 0.00 16 826.5
20260504234605 22 283 8.0 12.9 0.00 0.00 0.00 16 826.5
20260504234105 22 288 8.0 19.3 0.00 0.00 0.00 15 826.5
20260504233606 22 286 6.4 14.5 0.00 0.00 0.00 15 826.6
20260504233105 23 285 4.8 14.5 0.00 0.00 0.00 15 826.6
20260504232605 23 287 8.0 16.1 0.00 0.00 0.00 15 826.6
20260504232105 23 284 4.8 11.3 0.00 0.00 0.00 15 826.6
20260504231605 23 296 8.0 16.1 0.00 0.00 0.00 15 826.5
20260504230606 23 272 9.7 19.3 0.00 0.00 0.00 15 826.5
20260504230105 23 275 9.7 20.9 0.00 0.00 0.00 15 826.5
20260504225605 23 266 11.3 22.5 0.00 0.00 0.00 14 826.5
20260504225105 23 272 9.7 24.1 0.00 0.00 0.00 14 826.5